GFSMA_con_sbcape_000.txt.gz
CAPE
1451 2048 1750 1942 2172 2355 2904 1880 1904 1516 1678 1295 1653 953 1299 1272 1007 1453 988 1460 2341 2287 2217 2007 1581 1493 1707 1668 1601 1225 1220 1155 810 828 861 854 743 598 559 465 446 526 538
2278 2078 1668 1580 1780 2342 1775 2228 1737 1511 1372 1681 1530 1228 1092 1293 1222 1315 996 1296 1581 2411 2605 2301 1936 1624 1540 1530 1554 1385 1093 663 369 645 725 883 817 1046 737 498 530 486 481
1743 1610 1371 1244 1927 2572 2004 2065 1867 1900 1602 1653 1823 1482 1355 1189 1728 618 1444 1969 1216 2144 2693 2593 2290 1971 1587 1825 1923 1449 1347 951 671 749 709 884 1020 995 1009 925 723 506 577
1665 2025 1302 1150 1480 2161 2095 1607 1405 1365 1603 1668 1717 1449 1375 1094 1238 1319 1137 973 871 985 2106 2606 2350 2037 1981 1628 1845 1532 1595 905 871 758 718 830 814 1028 989 1021 927 962 791
1615 1568 1350 1149 1505 1699 2152 2154 970 1258 1234 1312 1454 1527 1245 1315 1658 1171 1516 984 862 1220 1227 1835 1815 1615 1742 1039 1350 1455 1054 974 909 778 694 671 867 901 886 964 957 971 1025
1294 1397 1394 1287 1272 1012 1823 2074 1291 993 900 801 1227 1163 918 1468 2082 1846 1144 882 1007 1384 1172 778 722 926 1731 1181 1019 1474 1051 636 1169 1063 691 627 848 1031 973 920 881 980 1035
1058 1110 1041 1196 1447 1362 1388 1626 1515 1064 1129 937 847 772 587 1163 1343 1691 1228 1002 742 1146 1161 885 692 574 413 915 907 1761 1327 1175 881 1057 903 545 1000 1013 1010 769 749 907 1043
895 874 951 1265 1146 790 1243 1518 1214 1058 1375 967 610 622 308 905 1143 1300 1283 1275 651 779 949 870 333 261 371 524 1003 1803 1560 1433 1148 1019 553 809 815 952 632 782 632 866 892
773 817 878 1079 1057 1486 939 1244 1043 659 1060 1104 901 322 275 722 962 1352 1267 965 704 626 678 672 606 506 352 541 830 1219 1664 1644 1683 1580 1105 1216 998 1000 605 641 614 631 891
1000 805 816 883 1264 1346 664 1366 698 248 421 820 432 660 355 1028 473 553 817 1252 1082 725 484 558 586 787 647 460 902 937 703 784 1399 1230 1453 1648 1241 881 738 728 733 543 864
1164 747 712 798 1227 1306 1106 851 1060 492 423 323 223 373 428 526 909 396 604 783 706 864 579 492 633 631 797 611 816 713 855 820 953 1123 1460 1344 1705 1130 1057 1011 797 837 1031
1245 909 654 899 1007 1059 863 618 838 711 552 320 230 168 198 229 640 421 313 440 512 596 664 618 644 458 545 698 717 837 970 721 660 767 1051 1525 1578 1431 1218 959 957 907 999
1240 941 783 806 895 1110 871 827 678 412 421 266 122 145 195 328 517 570 563 373 292 392 480 520 406 404 462 456 687 843 849 609 569 656 682 721 798 901 907 816 748 961 922
1077 988 975 836 678 763 727 510 997 328 467 251 290 446 447 571 547 538 447 337 213 314 312 290 543 555 721 659 754 947 577 483 433 473 530 492 759 726 788 992 1227 1657 1684
1058 938 811 721 574 538 898 492 394 469 230 216 136 172 89 68 413 402 830 999 390 104 154 106 63 448 486 870 807 558 833 371 458 461 464 447 579 577 822 1157 753 326 221
897 692 851 713 412 325 371 370 303 449 254 215 232 331 263 64 335 227 592 905 756 432 143 214 274 378 334 585 643 541 190 95 94 118 193 192 211 198 118 62 52 41 28
358 200 283 895 701 354 291 220 340 218 263 186 242 250 202 192 185 278 361 557 335 454 218 252 210 499 299 342 214 219 36 0 0 0 0 0 0 0 0 0 0 0 0
652 238 205 142 299 287 185 253 210 218 168 160 167 124 74 119 228 299 425 410 542 617 295 203 196 317 261 356 87 71 2 0 0 0 0 0 0 0 0 0 0 0 0
389 340 366 430 257 44 13 0 0 0 0 0 0 0 0 3 32 25 188 268 456 377 383 231 175 241 109 70 165 39 14 0 0 0 0 0 0 0 0 0 0 0 0
364 226 77 84 122 116 24 0 0 0 0 0 0 0 0 0 0 0 54 31 122 157 186 123 108 71 87 188 188 115 19 0 0 0 0 0 0 0 0 0 0 0 0
441 222 30 129 79 11 6 1 0 0 0 0 0 0 0 0 0 0 0 0 0 110 146 105 61 74 108 254 237 101 205 54 0 0 0 0 0 0 0 0 0 0 0
397 239 172 81 60 0 0 0 0 2 0 0 0 0 0 0 0 0 0 0 0 0 110 76 170 102 91 1 0 0 0 0 0 0 0 0 0 0 0 0 0 0 0
232 136 0 0 0 0 0 0 2 14 1 3 1 1 0 0 0 0 0 0 0 0 0 6 5 0 0 0 0 0 0 0 0 0 0 0 0 0 0 0 0 0 0
31 6 3 1 0 0 0 0 5 11 2 0 0 0 0 0 0 0 0 0 0 0 0 0 0 0 0 0 0 0 0 0 0 0 0 0 0 0 0 0 0 0 0
0 0 0 0 0 0 0 0 0 0 0 0 0 0 0 0 0 0 0 0 0 0 0 0 0 0 0 0 0 0 0 0 0 0 0 0 0 0 0 0 0 0 0
0 0 1 0 0 0 0 0 0 0 0 0 0 0 0 0 0 0 0 0 0 0 0 0 0 0 0 0 0 0 0 0 0 0 0 0 0 0 0 1 13 1 0

GFSMA_con_sbcape_003.txt.gz
CAPE
648 906 1125 1192 1409 1392 1244 1308 914 812 903 912 808 906 1021 762 756 551 771 1663 2142 2319 2536 1607 1506 1324 1367 1437 1274 1331 987 988 984 829 772 726 705 518 457 464 569 444 244
481 853 1049 800 910 810 951 1084 894 868 548 744 889 702 780 667 582 341 505 307 1509 2274 2572 2187 1990 1539 1426 1354 1336 1298 1111 1180 1233 910 932 1157 1123 1000 600 463 479 509 553
963 843 871 545 508 809 955 694 996 687 748 920 886 770 821 468 653 726 693 649 867 1824 2314 2451 2208 2298 2206 1992 1588 1671 1563 1291 1032 937 1081 999 1096 1069 1028 706 582 514 558
653 888 711 553 472 901 937 850 644 867 698 804 673 853 1031 929 1106 538 877 690 562 772 2109 2638 2439 2348 2069 1887 1683 1764 1790 1622 917 947 1175 1095 1135 1078 1077 1134 1089 938 854
798 655 769 534 402 527 714 868 525 615 567 764 705 551 675 630 719 941 811 775 712 904 1148 2183 2797 2449 2103 1197 1525 1510 1512 1336 1058 754 1010 1045 994 951 1012 999 1043 1040 905
967 657 620 581 509 420 680 834 403 239 474 456 1062 705 524 677 766 523 646 746 587 757 1014 706 1698 2006 2076 1928 1883 1464 1246 1525 1083 1125 1084 1064 1029 988 904 801 901 960 995
487 565 501 566 421 483 361 531 538 387 489 519 407 358 390 422 418 651 602 489 748 880 801 811 819 1024 1268 1693 1386 1065 1438 1797 1174 1638 1503 1060 915 993 969 855 834 776 880
296 414 453 495 390 564 553 528 488 395 420 323 158 166 96 142 480 696 728 445 352 588 639 755 641 668 451 534 489 840 1613 2008 1285 1498 1270 718 903 954 860 833 726 554 685
198 172 228 374 511 318 380 416 438 260 360 507 319 79 85 64 300 463 696 479 516 394 496 542 435 347 256 340 526 668 1486 1468 1720 1665 1676 1207 848 757 719 792 689 622 681
240 255 175 368 537 463 297 320 333 215 239 262 325 331 194 191 110 108 263 584 484 336 308 212 395 326 281 279 587 720 927 812 1210 1891 2028 1779 1362 706 644 817 673 453 678
147 370 259 287 444 413 511 359 186 115 97 173 71 103 173 226 216 144 134 186 487 373 201 181 294 374 444 312 330 552 700 616 724 896 1020 1346 1093 817 901 914 851 827 854
173 407 267 208 288 489 393 378 241 94 76 64 60 85 90 132 98 137 101 54 103 199 202 182 162 203 290 322 500 738 806 612 517 572 662 651 1165 1211 1024 1038 872 699 618
207 281 208 161 304 448 275 223 301 182 115 113 67 78 76 72 129 99 148 92 126 142 299 301 258 156 155 181 400 841 1013 608 486 471 559 557 711 733 1061 937 941 975 1061
42 142 196 264 332 424 249 203 210 61 78 67 31 78 79 117 152 135 116 50 1 51 40 121 131 126 126 152 210 765 411 582 489 500 528 601 615 662 549 445 399 646 662
83 187 276 326 353 263 156 110 62 137 102 70 95 97 112 15 0 110 106 44 14 5 36 46 78 117 186 292 292 527 206 416 355 388 372 473 548 727 540 530 1049 1098 681
88 217 231 168 175 136 112 113 78 150 115 43 30 36 2 0 0 86 62 24 159 44 7 15 102 125 232 546 441 170 131 147 129 156 157 232 290 326 364 158 36 8 15
47 43 114 156 79 38 41 108 98 123 98 47 26 70 40 22 93 104 41 45 27 86 21 81 63 153 147 100 81 20 0 0 0 0 0 6 3 0 0 0 0 0 0
48 12 33 37 10 0 10 46 53 44 54 66 37 18 21 25 0 1 34 65 161 135 60 105 106 63 64 60 0 0 0 0 0 0 0 0 0 0 0 0 0 0 0
30 20 35 12 10 0 0 0 0 0 0 0 0 0 0 0 0 0 0 3 26 54 108 133 106 11 0 2 0 0 0 0 0 0 0 0 0 0 0 0 0 0 0
2 12 9 1 0 0 0 0 0 0 0 0 0 0 0 0 0 0 0 0 0 38 76 64 5 2 8 18 0 0 0 0 0 0 0 0 0 0 0 0 0 0 0
0 2 0 0 0 0 0 0 0 0 0 0 0 0 0 0 0 0 0 0 0 0 65 82 66 55 61 54 84 22 0 0 0 0 0 0 0 0 0 0 0 0 0
15 0 0 0 0 0 0 0 0 0 0 0 0 0 0 0 0 0 0 0 0 0 23 73 28 0 1 0 0 0 0 0 0 0 0 0 0 0 0 0 0 0 0
0 0 0 0 0 0 0 0 0 0 0 0 0 1 5 3 0 0 0 0 0 0 0 0 0 0 0 0 0 0 0 0 0 0 0 0 0 0 0 0 0 0 0
0 0 0 0 0 0 0 0 0 0 0 0 0 0 0 0 0 0 0 0 0 0 0 0 0 0 0 0 0 0 0 0 0 0 0 0 0 0 0 0 0 0 0
0 0 0 0 0 0 0 0 0 0 0 0 0 0 0 0 0 0 0 0 0 0 0 0 0 0 0 0 0 0 0 0 0 0 0 0 0 0 0 0 0 0 0
0 0 0 0 0 0 0 0 0 0 0 0 0 0 0 0 0 0 0 0 0 0 0 0 0 0 0 0 0 0 0 0 0 0 0 0 0 0 0 0 0 0 0

GFSMA_con_sbcape_006.txt.gz
CAPE
920 1099 1160 1032 1048 1103 1020 985 964 916 1004 1065 991 694 565 532 424 296 238 828 1720 2200 2163 1755 1370 1388 1366 1699 1640 908 827 855 734 837 748 746 561 414 461 505 265 214 225
400 403 767 690 763 632 681 866 662 680 568 470 706 711 685 408 495 381 345 483 1323 2168 2215 2297 1740 1362 1256 1216 1354 1200 1091 1002 1022 880 914 843 952 825 592 459 562 453 249
128 273 566 539 445 472 490 624 588 604 568 628 715 639 551 516 385 494 417 244 311 1821 2322 2553 2285 2175 1927 1578 1268 1436 1613 1274 1214 1359 1127 904 854 1054 969 784 559 543 471
374 578 422 487 305 316 484 431 402 554 497 597 663 555 529 242 412 549 311 372 361 598 2017 2252 2497 2296 2301 1850 1564 1588 1875 1611 1029 1088 1096 1053 859 854 1031 1017 966 872 827
333 316 482 372 257 358 368 442 331 398 396 395 382 433 452 444 615 795 552 473 433 310 324 1886 2282 2224 2144 1707 1659 1790 1768 1733 1289 776 1027 996 1067 964 844 908 1024 943 890
500 222 248 322 205 223 317 360 304 330 244 329 530 628 538 314 347 432 620 561 487 558 581 704 1670 1764 2213 1964 1397 1926 1193 340 1319 1065 784 778 789 941 859 887 905 1021 928
664 402 193 215 170 223 190 384 241 92 179 278 195 222 296 356 449 293 248 506 438 381 562 547 491 885 1213 1919 1243 1357 1821 1000 876 1195 1064 901 674 885 913 954 780 866 865
192 148 119 104 89 253 108 254 304 286 179 194 118 52 108 97 198 258 395 274 336 535 554 357 420 543 612 594 543 1160 806 1321 1283 1448 1395 1038 914 705 552 624 441 634 780
94 89 92 31 16 175 193 219 264 216 216 245 126 38 61 50 122 187 423 258 319 157 358 391 445 310 331 357 508 548 691 944 1226 1849 1610 1258 758 587 645 514 527 404 521
70 84 79 61 45 41 107 142 210 152 107 203 183 262 103 76 50 1 50 242 225 193 174 245 330 250 238 156 320 376 487 678 899 1783 1715 1668 1143 689 587 541 559 465 438
3 35 99 60 76 48 36 116 160 77 76 67 43 94 89 116 38 39 25 16 195 272 147 198 186 217 219 189 162 292 606 523 652 943 1208 1264 1202 798 666 604 746 554 455
0 0 103 54 99 101 125 137 93 0 22 8 0 1 46 78 43 50 48 41 39 23 140 105 111 142 194 262 389 491 674 570 505 497 513 477 598 511 555 434 638 742 594
2 31 78 28 21 125 147 175 109 10 0 0 0 12 38 75 83 39 29 30 28 34 150 79 92 89 128 162 296 820 764 562 479 353 377 412 379 569 917 705 734 1256 885
0 0 45 20 40 121 115 102 198 88 23 10 10 30 53 84 96 103 46 22 9 0 1 54 25 86 73 78 92 303 318 271 313 244 199 226 246 308 368 346 409 466 417
11 15 48 80 97 132 90 42 69 17 2 1 8 37 73 84 53 59 49 29 26 0 0 7 28 94 139 144 184 144 193 88 70 102 272 301 138 244 226 287 294 261 358
17 33 31 66 91 90 38 0 0 10 5 14 17 39 47 16 4 14 37 28 36 33 13 16 90 101 118 328 251 89 119 90 89 102 90 40 49 190 208 373 141 35 23
2 24 26 10 2 7 3 7 14 17 5 18 7 15 0 0 0 16 30 10 35 11 1 27 35 61 101 105 9 0 0 0 0 0 1 43 77 53 8 0 0 0 0
0 23 0 3 1 1 0 1 6 1 0 2 0 32 0 32 7 0 0 4 28 21 4 38 24 15 20 16 5 0 0 0 0 0 0 0 0 0 0 0 0 0 0
0 4 0 0 0 0 0 0 0 0 0 0 0 0 0 0 0 0 0 0 0 0 8 13 1 0 0 0 0 0 0 0 0 0 0 0 0 0 0 0 0 0 0
0 0 0 0 0 0 0 0 0 0 0 0 0 0 0 0 0 0 0 0 0 0 6 9 2 9 6 0 0 0 0 0 0 0 0 0 0 0 0 0 0 0 0
0 0 0 0 0 0 0 0 0 0 0 1 1 1 1 1 1 0 0 0 0 0 0 23 34 31 11 14 0 0 0 0 0 0 0 0 0 0 0 0 0 0 0
0 0 0 0 0 0 0 0 0 0 0 0 1 0 0 1 2 1 0 0 0 0 23 18 27 0 1 0 0 0 0 0 0 0 0 0 0 0 0 0 0 0 0
0 0 0 0 0 0 0 0 0 0 0 0 1 0 2 3 0 0 0 0 0 0 0 3 0 0 0 0 0 0 0 0 0 0 0 0 0 0 0 0 0 0 0
0 0 0 0 0 0 0 0 0 0 0 0 0 0 0 0 0 0 0 0 0 0 0 0 0 0 0 0 0 0 0 0 0 0 0 0 0 0 0 0 0 0 0
0 0 0 0 0 0 0 0 0 0 0 0 0 0 0 0 0 0 0 0 0 0 0 0 0 0 0 0 0 0 0 0 0 0 0 0 0 0 0 0 0 0 0
0 0 0 0 0 0 0 0 0 0 0 0 0 0 0 0 0 0 0 0 0 0 0 0 0 0 0 0 0 0 0 0 0 0 0 0 0 0 0 0 0 0 0

GFSMA_con_sbcape_009.txt.gz
CAPE
1049 1048 1007 979 993 1029 1003 996 996 939 946 831 948 471 478 387 337 270 380 1147 1868 1868 2080 1979 1653 1474 1470 1645 1366 898 914 723 679 602 541 644 604 624 503 315 158 217 220
597 589 640 702 755 743 752 768 688 631 548 664 836 643 346 412 391 225 180 205 1665 1637 2181 2250 1841 1543 1355 1401 1548 1296 1092 884 934 878 947 708 807 772 537 525 317 231 257
252 310 357 432 449 422 467 565 489 419 428 314 504 658 524 344 385 355 213 151 532 1508 2072 1999 2388 2038 1925 1439 1344 1642 1604 1433 1394 1210 1125 1018 811 974 726 907 548 383 475
50 68 131 307 289 251 303 273 357 388 302 277 412 521 562 339 387 356 310 271 234 270 905 1835 2055 2214 1995 1613 1451 1483 1813 1580 1487 1267 1319 1153 912 772 730 1033 997 631 562
157 169 179 241 303 165 195 263 186 293 288 289 280 321 312 189 258 502 369 255 225 260 264 997 1576 2062 1857 1719 1770 2051 2028 1868 1651 1393 1348 1178 1173 916 753 735 911 913 686
304 167 262 316 168 123 169 216 229 203 155 200 378 674 325 240 302 425 418 377 289 312 231 330 546 1065 1795 2243 1921 1854 2178 2280 1937 1320 1067 677 709 676 812 651 715 774 764
297 154 137 158 76 128 144 129 96 100 134 106 74 116 94 199 309 254 320 480 454 432 276 301 367 993 1259 1822 1549 1765 2080 2384 1164 1021 1259 689 550 525 545 872 754 700 692
204 174 103 109 121 99 6 109 116 69 8 75 74 11 125 101 111 144 230 287 370 363 359 455 379 349 380 495 785 1355 1545 1198 1189 794 1026 992 749 607 376 651 613 413 505
60 81 67 19 44 75 25 34 118 88 91 69 47 14 26 33 19 65 234 276 291 257 350 353 257 211 298 379 539 550 854 789 924 1119 725 1225 907 489 495 457 419 254 380
2 21 28 47 27 21 58 69 91 64 1 80 69 56 33 0 0 39 4 209 266 228 172 184 268 242 141 143 346 476 472 364 492 592 828 1329 999 596 455 366 440 430 298
0 0 45 52 62 20 35 32 98 37 0 0 35 63 37 51 1 0 0 0 99 170 148 108 138 140 116 83 74 181 461 289 264 582 847 883 1063 755 698 604 763 904 754
0 0 14 47 70 57 14 7 37 32 0 0 5 14 35 73 41 15 18 0 0 3 109 132 140 87 101 90 180 301 359 400 264 321 411 563 470 623 830 343 306 381 493
0 0 3 54 62 53 25 18 0 0 0 0 0 0 0 9 9 6 2 2 3 17 98 95 105 88 59 71 164 580 604 329 233 150 190 315 270 396 464 491 513 448 438
0 0 0 19 18 34 29 35 10 0 0 0 0 0 0 2 17 23 12 19 9 0 1 44 9 48 39 45 80 261 258 97 136 50 36 104 79 200 254 349 410 403 550
12 0 0 0 0 16 29 5 105 186 27 0 0 0 0 0 28 37 24 34 12 3 0 3 17 8 19 42 70 88 63 59 84 80 33 8 63 49 82 141 218 131 72
0 0 0 0 5 18 11 5 1 0 1 0 0 0 2 0 6 15 25 9 15 6 3 1 19 21 40 137 82 37 51 2 16 65 69 64 1 1 58 102 87 40 11
0 0 0 0 1 0 0 0 0 1 1 1 0 0 1 0 0 9 11 4 3 9 5 1 1 0 1 2 1 0 0 0 0 0 1 1 1 3 0 0 0 0 0
1 0 1 1 1 1 1 0 15 9 7 1 1 0 1 4 3 8 2 4 2 8 3 0 1 1 2 1 0 0 0 0 0 0 0 0 0 0 0 0 0 0 0
0 0 0 0 0 0 0 0 0 0 1 1 1 2 3 2 1 1 1 0 0 1 0 1 1 0 1 0 0 0 0 0 0 0 0 0 0 0 0 0 0 0 0
0 0 0 0 0 0 0 0 0 0 1 0 0 0 0 0 0 0 0 0 0 0 0 0 0 1 0 0 0 0 0 0 0 0 0 0 0 0 0 0 0 0 0
0 0 0 0 0 0 0 0 0 0 0 0 0 1 1 2 0 0 0 0 0 0 1 1 1 7 1 1 0 0 0 0 0 0 0 0 0 0 0 0 0 0 0
0 0 0 0 0 0 0 0 0 0 0 0 0 1 1 2 3 3 3 2 0 0 0 0 2 3 0 0 0 0 0 0 0 0 0 0 0 0 0 0 0 0 0
0 0 0 0 0 0 0 0 0 0 0 0 0 1 3 3 0 0 0 0 0 0 0 0 0 0 0 0 0 0 0 0 0 0 0 0 0 0 0 0 0 0 0
0 0 0 0 0 0 0 0 0 0 0 0 0 0 0 0 0 0 0 0 0 0 0 0 0 0 0 0 0 0 0 0 0 0 0 0 0 0 0 0 0 0 0
0 0 0 0 0 0 0 0 0 0 0 0 0 0 0 0 0 0 0 0 0 0 0 0 0 0 0 0 0 0 0 0 0 0 0 0 0 0 0 0 0 0 0
0 0 0 0 0 0 0 0 0 0 0 0 0 0 0 0 0 0 0 0 0 0 0 0 0 0 0 0 0 0 0 0 0 0 0 0 0 0 0 0 0 0 0

GFSMA_con_sbcape_015.txt.gz
CAPE
499 2866 2342 2350 2222 2261 2263 2300 2261 2281 2066 1991 1848 1667 1368 1323 1251 750 743 1549 1837 1893 2218 1877 1402 1506 1396 1418 1334 1257 1055 852 721 644 621 567 566 412 238 312 214 177 109
949 2373 2366 2519 2427 2351 2057 2042 1875 1907 2131 1931 1598 1646 1659 1550 1330 947 493 1053 1883 1848 2047 2261 1435 1838 1389 1423 1403 1330 1328 1039 1057 1199 1134 993 751 832 524 324 275 197 140
2148 2018 2280 1905 2006 2641 2160 2067 2001 1991 1894 1879 1764 1591 1579 1587 1475 1109 736 872 1123 1405 1670 1314 1506 1551 1830 1643 1765 1666 1561 1429 1235 1213 1094 899 1069 788 646 831 461 266 353
1593 1793 2177 1476 1630 2096 2197 1858 1888 1591 1457 1480 1695 2144 2069 1611 1609 1443 981 732 1112 926 1187 1680 1256 1264 1107 1597 1662 1584 1561 1370 1254 1224 1144 1041 901 754 845 892 965 766 562
1739 1629 1309 1734 1733 1496 1496 1425 1770 1679 1322 1148 1222 1614 1804 1783 1821 1545 1375 917 941 1064 877 1270 1112 1113 946 997 1634 1891 1748 1604 1355 1419 1171 1160 1167 940 325 833 1017 937 776
1319 1672 1259 1297 1432 1040 1206 1268 1258 1150 1293 1075 787 887 1769 1300 1799 1518 1470 1049 906 1139 1212 1127 1121 826 1079 988 1698 2079 1926 1858 1467 1430 1115 1313 1131 914 521 426 737 835 871
1427 1562 1403 1329 1132 996 1280 1481 1773 1271 1154 1148 902 787 1196 1172 1291 1490 1476 1063 1157 1177 1300 1317 991 992 944 1106 1225 1747 2022 1934 1693 1029 805 949 1052 650 580 373 225 451 564
788 989 1062 1351 1272 1227 1067 1397 1351 1385 965 1136 662 931 735 1025 1085 1249 1343 1413 1434 1400 1288 1353 1287 1402 1313 1318 1071 1321 1693 2048 1902 1202 724 525 478 287 287 264 260 241 290
528 682 561 792 1422 496 439 605 1337 883 1071 1006 1089 1171 832 310 1107 1215 1577 1499 1492 1620 1461 1658 1575 1341 1490 1520 1469 1286 1413 1211 1557 1346 1086 382 259 174 239 281 281 242 205
179 316 691 647 803 701 192 281 1209 1551 1776 938 877 812 554 342 1178 1027 983 1329 1451 1646 1629 1744 1525 1448 1752 1689 1605 1329 761 525 626 866 910 842 207 117 276 247 341 303 237
209 240 368 710 988 913 631 149 385 1436 1278 1624 891 771 946 1038 548 301 454 690 908 1106 1273 1632 1477 1536 1635 1630 1421 1704 847 550 423 468 469 734 373 265 350 375 457 636 579
235 471 413 607 814 961 1053 1100 978 1110 1148 1149 1086 826 676 849 1318 1118 715 599 401 394 556 886 1170 1040 1042 1101 1211 880 733 479 253 212 222 359 445 616 501 552 761 662 657
254 373 447 583 670 884 942 1023 1041 1042 1018 1042 1165 911 766 519 1329 1303 1432 296 323 352 345 490 605 895 905 1051 1128 766 946 394 214 133 99 89 132 259 491 463 489 586 743
440 559 540 498 483 466 524 599 893 1243 1014 1077 1075 1078 835 861 465 450 975 592 956 490 353 428 463 543 704 897 927 299 937 249 133 67 77 29 40 82 144 157 219 237 244
381 538 528 634 683 815 830 860 961 924 938 1024 1001 1003 875 520 143 360 442 636 787 237 394 392 419 426 403 529 550 757 812 3 26 11 4 24 10 52 71 80 67 91 81
52 324 326 502 562 694 910 754 717 594 657 445 326 619 787 685 552 317 395 525 488 1081 621 281 230 164 181 43 20 94 15 1 3 1 1 1 1 2 2 1 0 12 22
196 117 33 29 147 430 623 498 299 191 247 262 239 242 488 537 648 602 619 581 496 360 295 169 82 49 39 23 8 9 6 9 5 3 1 1 1 0 1 0 1 0 3
85 120 11 8 6 18 206 426 192 159 60 64 110 131 216 466 537 615 551 338 40 27 44 12 27 31 4 3 3 2 4 5 4 4 2 2 1 1 1 0 0 0 0
65 46 35 12 8 8 5 4 3 3 2 4 53 152 114 151 82 42 21 36 22 71 89 65 14 7 8 9 3 2 3 3 5 3 3 2 3 1 0 0 0 0 0
32 24 25 10 8 7 8 8 6 5 4 3 2 2 2 1 1 2 3 3 6 7 7 17 13 7 3 3 3 3 3 4 4 5 7 4 3 1 0 0 0 0 0
10 10 14 10 5 1 1 6 7 8 3 2 2 2 4 5 4 3 2 1 1 7 19 24 22 23 12 8 7 4 6 7 8 17 7 16 9 8 11 5 0 0 0
8 10 9 8 6 0 0 0 3 6 5 6 5 4 2 2 2 0 0 1 1 1 4 9 5 5 3 5 4 6 5 6 6 1 9 8 7 6 3 0 0 0 0
4 5 10 9 7 3 0 0 0 4 4 5 6 1 0 0 0 0 0 0 0 0 0 0 0 2 0 0 3 5 4 2 5 3 7 5 7 8 11 12 2 1 0
2 1 2 1 1 0 0 0 0 2 0 0 0 0 0 0 0 0 0 0 0 0 0 0 1 1 0 1 4 4 1 2 2 2 2 4 4 6 3 3 5 1 0
7 2 1 1 0 0 0 0 0 0 0 0 0 0 0 0 0 0 0 0 0 0 0 0 0 0 0 0 0 0 1 1 0 0 0 2 4 9 4 0 0 0 0
3 0 0 0 0 0 0 0 0 0 0 0 0 0 0 0 0 0 0 0 0 0 0 0 0 0 0 0 0 0 0 0 0 1 0 1 4 1 4 0 0 0 0

GFSMA_con_sbcape_021.txt.gz
CAPE
1877 634 158 158 814 1601 1644 1591 1175 1687 1773 1696 1597 1509 1318 1144 1077 823 887 2174 2003 1746 1899 1878 1728 1317 970 1592 1412 1280 1180 1080 967 781 715 684 770 634 427 301 212 319 256
1402 671 345 151 358 971 1512 669 1556 2042 1177 1426 1699 1400 1609 1862 1450 1327 813 1117 2194 1795 1771 1757 1857 1434 657 1390 1459 1304 1421 1173 1312 1166 1240 1180 1093 987 767 593 395 363 378
1622 1297 866 751 314 303 178 189 713 1717 1669 1915 1296 1755 1327 1829 1689 1444 1532 1362 1420 1886 1928 1807 2147 1895 1493 891 1367 1269 1577 1429 1404 1375 1308 1319 1172 1039 948 805 723 683 639
2239 2026 1590 1191 812 101 0 32 1207 920 1724 1675 1956 1709 1652 1461 1434 1736 2192 1412 812 840 1714 1701 1700 1768 281 170 653 929 1259 1387 1287 1277 1422 1203 1334 1188 1041 897 855 746 775
1648 1883 1289 1499 1495 716 689 1759 1403 1489 1528 1231 1297 1719 1691 1831 1266 1264 1548 1558 1492 1444 1195 1462 1133 1123 404 455 297 110 493 1369 1232 1198 1594 956 1151 987 887 900 762 780 815
1861 2532 2432 1604 3073 2000 1325 1484 1669 1535 983 814 475 881 1779 1346 1387 1310 1521 2125 2251 1613 1362 2227 1650 569 798 706 560 480 446 628 1482 1294 1360 1197 1046 801 451 347 368 463 554
1784 2364 2600 2464 2518 2281 2146 2581 2020 2213 1033 963 1571 931 622 848 1618 1554 1399 1249 1812 1700 1187 2382 1589 1461 823 989 953 1089 837 760 1532 1775 1356 959 1033 1007 697 662 321 291 334
1552 1817 2302 2099 2331 2233 2354 2381 2293 2191 1949 2213 1049 612 388 135 658 1333 1404 2353 1731 2391 1667 2008 1790 1721 1068 669 639 1116 1358 1331 1127 1900 1645 1044 618 284 339 399 326 268 280
922 1262 1298 1966 1918 2487 2407 1777 1970 1571 1740 2103 1681 652 235 86 107 1916 2087 1462 1919 2804 2047 2164 1396 1894 1776 874 966 1377 1373 1035 1303 1573 1665 1379 527 264 217 127 153 285 227
661 872 1115 874 1736 2260 1875 1929 2178 1583 1807 1722 1937 1109 1625 994 660 573 2104 2200 2572 2441 2354 1238 755 1064 2123 1674 1769 1484 1306 1101 1097 1394 1413 884 863 684 384 287 306 264 191
917 969 738 771 1061 1872 1926 1619 1884 2129 1974 1883 1595 1998 1536 465 786 750 1043 867 1477 1287 2037 1549 1208 1537 1916 1970 1191 1193 1422 1187 882 991 1027 982 1079 561 438 410 442 227 89
800 972 900 1012 1526 1271 1303 1996 1859 1616 1885 844 1395 1718 1761 1079 545 814 1435 997 322 725 988 699 1434 1556 1672 1060 985 2399 1808 858 694 696 642 625 653 738 676 722 659 332 239
780 1450 1049 1071 1025 1127 1161 1569 1625 1375 1556 894 1161 1316 1855 770 2070 1537 1976 437 322 903 949 361 1265 2008 831 974 1021 1248 1150 572 463 359 242 155 200 300 386 676 728 645 572
1184 1090 1149 890 1144 699 935 1116 961 1072 1390 1109 1022 1339 1523 1233 586 896 1703 2030 1108 342 344 488 1069 1684 1579 1053 769 1110 434 3 5 2 0 1 0 3 54 140 238 240 277
976 970 1126 1108 970 883 991 1170 1570 1236 1706 1724 1442 1190 1727 1501 683 572 830 1429 1597 293 354 463 1182 946 625 397 206 254 12 8 6 2 1 3 2 1 0 9 15 30 46
910 959 577 782 1037 1069 1038 1271 1674 1474 1294 1386 1432 1276 1543 2168 1890 2149 1242 740 1415 847 257 523 584 452 225 48 15 6 8 5 6 5 3 1 2 2 2 1 3 2 0
813 699 493 370 468 868 1240 1382 983 872 975 870 751 715 741 1044 1581 2369 2505 1991 1362 1570 1020 567 403 456 20 10 6 9 11 6 7 5 4 3 2 3 3 3 3 3 3
818 624 459 425 436 95 388 434 211 225 365 303 345 432 440 695 893 1143 1369 1207 1102 1034 834 558 342 10 5 4 4 3 5 10 6 9 6 5 5 3 3 3 3 2 2
232 293 223 168 306 221 69 42 20 8 9 8 7 5 28 114 51 65 80 105 140 323 216 145 93 5 6 4 4 5 5 5 7 14 11 9 9 7 5 3 1 1 0
285 208 195 96 161 48 28 19 18 15 8 8 7 8 10 9 15 12 8 14 33 23 8 5 6 7 10 8 7 6 3 5 6 9 12 9 7 8 9 6 5 3 0
66 24 51 26 12 11 3 20 7 5 11 9 8 4 3 3 3 1 5 11 29 26 35 29 12 6 6 8 7 8 6 7 7 9 9 9 7 6 4 2 3 1 0
13 8 9 12 8 0 0 0 3 15 1 3 11 10 8 0 0 0 0 0 0 35 21 4 5 4 7 6 10 6 5 4 3 10 10 12 6 9 11 3 0 0 0
7 9 11 13 9 0 0 0 0 5 7 6 5 2 1 0 1 0 0 0 0 0 0 10 5 4 7 7 14 9 7 6 7 10 15 7 6 5 14 9 0 0 0
4 4 9 11 5 0 0 0 0 14 9 10 7 9 6 1 0 0 0 0 0 0 0 0 3 4 6 18 6 4 4 3 4 3 8 4 2 3 2 8 0 0 0
6 3 11 13 10 0 0 0 0 15 16 12 0 0 0 0 0 0 0 0 0 0 0 0 0 0 0 0 0 7 15 18 3 7 3 7 5 1 0 0 7 0 0
12 8 10 10 0 0 0 0 0 10 8 0 0 0 0 0 0 0 14 10 5 2 1 0 0 0 0 0 0 0 0 5 55 22 6 15 18 17 14 13 9 11 0

GFSMA_con_sbcape_027.txt.gz
CAPE
993 1024 96 104 74 893 387 28 0 0 0 0 0 40 592 647 512 605 492 1598 1405 1459 2500 2211 1816 1284 1696 1814 1863 1213 723 825 568 644 517 370 789 534 173 77 178 350 197
859 1084 186 136 106 365 45 0 0 0 0 0 6 0 3 377 451 433 630 899 1818 1518 2048 2310 1883 1824 1238 1919 2021 1889 1300 933 1029 1299 1161 1109 1078 1032 642 571 176 319 408
1051 1147 793 326 200 275 289 73 0 0 0 0 0 18 80 526 727 883 481 640 1141 1574 1629 1805 2227 2370 2003 1056 1454 1809 1965 1631 1425 1509 1417 1242 1228 1217 1017 930 858 749 613
1178 1204 845 581 200 160 15 0 0 0 0 0 7 16 25 343 918 1089 922 599 841 775 1546 1777 1654 2120 2218 1822 863 1735 1775 1639 1535 1521 1424 1353 1220 1211 1084 1021 965 885 831
838 966 1007 969 550 286 23 0 0 0 0 5 7 15 178 448 671 1150 1026 1174 744 901 606 982 1473 1430 1773 1661 1521 1868 2058 1547 1239 1292 1385 1519 1279 1083 1067 1062 911 969 857
73 219 830 977 505 325 69 0 0 0 1 165 548 599 302 30 293 678 1040 1113 867 801 924 634 790 909 1760 1825 1892 1837 1483 1272 1209 1194 1364 1446 1474 1132 979 855 830 712 747
0 0 786 555 436 363 380 216 166 173 78 144 201 10 336 312 511 642 841 969 1076 937 918 826 482 515 673 1517 1432 1002 1241 856 820 781 1078 1385 1175 1185 1116 729 422 516 465
14 440 714 588 448 204 123 283 264 74 37 84 11 0 9 27 431 748 558 849 938 994 1021 1067 774 436 283 601 749 1038 1085 1216 1016 1054 1116 921 1349 1223 1152 914 608 394 334
734 553 284 259 268 175 233 196 158 85 142 131 131 77 51 41 63 260 582 789 676 976 1118 1317 839 499 310 207 279 363 817 795 1062 1231 1492 1241 1015 1015 999 823 726 483 348
682 329 247 386 386 294 280 323 282 124 98 112 157 305 324 319 39 89 161 440 502 863 1077 787 754 494 324 407 582 419 420 212 539 815 946 1262 1042 862 819 821 627 423 206
257 257 351 468 390 415 372 356 302 181 84 129 88 152 152 267 270 72 44 100 627 827 845 869 926 351 332 209 216 61 14 5 161 365 600 879 979 1041 1101 1121 1002 788 537
281 397 533 494 427 358 223 399 250 242 88 190 149 178 152 100 82 192 69 35 54 112 241 475 385 52 108 13 491 30 26 32 134 115 220 380 457 769 1391 1348 1227 1153 1023
454 449 524 522 400 401 282 283 233 208 127 99 131 171 189 105 119 120 44 33 80 71 193 19 134 111 324 271 112 72 107 40 80 21 20 98 114 129 183 312 429 574 699
280 193 210 377 387 555 485 300 360 196 141 155 165 207 145 211 224 146 39 31 59 45 48 68 38 19 76 25 137 114 22 3 1 0 1 1 2 1 1 6 13 21 38
221 39 53 106 217 402 426 191 197 234 273 243 193 137 148 136 389 194 228 77 3 21 19 83 9 3 2 1 3 1 5 6 1 3 1 0 0 0 1 0 0 0 0
95 39 102 51 11 95 132 48 123 78 90 97 176 218 341 344 303 119 99 106 131 11 32 21 4 7 7 8 11 3 7 6 7 6 5 2 4 3 2 2 1 1 1
6 5 114 27 4 0 0 0 0 0 0 0 0 20 41 23 27 47 68 74 102 42 37 6 7 10 9 6 6 2 3 3 5 8 6 6 5 5 6 6 6 6 5
8 6 11 7 1 4 0 0 0 0 0 1 0 0 0 0 0 0 18 43 44 31 11 17 7 4 5 3 2 2 6 6 5 11 10 8 7 6 6 5 4 2 2
1 2 2 0 0 1 3 0 0 0 0 0 0 0 0 0 0 0 0 0 0 0 0 0 1 5 8 4 3 3 2 3 8 11 9 7 4 4 2 1 0 0 0
0 0 0 0 0 0 4 2 0 0 0 0 0 0 0 0 0 0 0 0 0 0 0 1 2 4 5 6 4 2 2 4 3 4 4 2 3 4 2 0 0 0 0
0 2 0 0 0 0 0 0 0 0 0 0 0 0 0 0 0 0 0 0 0 0 0 0 0 0 2 4 2 2 3 1 2 1 3 2 0 0 0 0 0 0 0
12 0 0 0 0 0 0 0 3 1 3 3 0 0 0 0 0 0 0 0 0 0 0 0 0 0 0 2 2 0 0 1 1 2 2 3 0 0 0 0 0 0 0
1 0 0 0 0 0 0 0 3 0 0 0 0 0 0 0 0 0 0 0 0 0 0 0 0 0 0 0 0 0 0 0 0 0 0 3 0 1 2 0 0 0 0
0 1 0 0 0 0 0 0 0 0 0 0 0 0 0 0 0 0 0 0 0 0 0 0 0 0 0 0 0 0 0 0 0 0 0 0 0 0 2 0 0 0 0
0 0 0 0 0 0 0 0 0 0 0 0 0 0 0 0 0 0 0 0 0 0 0 0 0 0 0 0 0 0 0 0 0 0 0 0 0 0 0 0 0 0 0
0 0 0 0 0 0 0 0 0 0 0 0 0 0 0 0 0 0 0 0 0 0 0 0 0 0 0 0 0 0 0 0 0 0 0 0 0 0 0 0 0 0 0

GFSMA_con_sbcape_030.txt.gz
CAPE
378 707 618 614 878 838 760 191 257 233 31 15 108 94 194 367 316 406 521 803 1300 1413 2267 2162 1816 1365 1112 1626 1454 1081 488 475 537 402 609 746 609 226 137 76 292 183 187
491 544 126 70 6 367 161 75 58 44 19 0 27 22 18 52 338 318 521 473 1457 1597 1708 2346 2438 2015 1506 1645 1738 1823 911 827 1037 1045 1059 892 1006 1082 545 183 55 337 459
626 550 180 51 0 4 154 0 0 0 0 0 0 0 21 92 473 602 336 520 630 1648 1521 1747 2449 2306 1807 1562 1727 2320 1883 1677 1413 1450 1394 1255 976 1105 1105 856 599 611 845
631 704 507 300 151 76 81 40 22 0 0 0 0 0 79 87 249 496 593 574 607 718 1210 1727 1804 1751 2276 1823 1583 1789 2203 1943 1643 1409 1549 1473 1200 1050 1132 992 1036 895 824
957 789 782 674 267 201 38 0 0 0 0 0 0 1 10 172 373 607 821 638 505 819 635 1199 1620 1408 1731 1547 1763 1235 1751 1796 1741 1718 1694 1596 1568 1301 1030 1027 1070 974 929
93 121 362 342 98 175 42 0 0 0 0 0 266 536 184 184 197 215 573 635 694 581 711 599 672 835 1471 1598 1816 1454 1434 1930 1695 1704 1400 1354 1503 1444 1052 937 809 915 961
0 0 16 383 216 110 64 6 0 0 0 1 67 0 0 108 127 59 134 446 693 530 541 736 367 453 580 1149 970 1349 1446 1947 1700 1093 733 897 1097 1031 937 1037 890 806 580
18 16 268 305 192 119 13 0 11 19 44 48 1 0 0 1 43 202 215 416 660 590 734 726 735 527 356 391 795 901 1094 1148 780 896 684 351 297 1066 1228 929 894 672 486
414 299 69 33 9 21 36 8 0 0 1 6 3 0 0 1 10 46 239 314 590 389 506 528 559 709 388 224 483 490 709 452 568 665 895 825 568 350 609 857 904 653 453
65 81 78 83 69 35 40 30 32 14 0 1 6 79 29 24 33 37 31 155 378 426 475 355 462 479 422 240 318 395 35 35 56 125 237 524 765 648 414 440 470 494 323
83 134 179 93 16 12 53 16 19 28 0 3 0 10 40 44 46 51 51 41 123 282 359 346 411 453 232 178 46 48 2 0 35 73 8 104 413 560 589 1091 1155 1033 942
4 17 71 68 33 42 5 3 33 46 4 0 3 27 47 33 49 86 34 40 8 13 31 13 113 89 13 0 205 82 14 1 8 1 0 52 227 458 434 332 554 1279 1116
0 0 1 44 39 97 78 14 36 15 0 0 4 44 61 43 24 50 47 35 3 0 22 24 85 103 332 88 67 23 8 2 0 7 1 10 22 69 133 211 345 387 520
0 0 0 13 25 76 74 25 16 39 2 0 0 2 13 20 64 26 30 19 21 0 0 35 5 14 17 71 86 10 4 4 3 1 1 0 1 3 1 5 34 49 59
7 2 11 0 0 0 0 0 0 11 7 16 51 0 4 0 39 88 61 17 0 8 0 3 1 2 2 1 5 2 3 5 5 5 2 2 2 2 2 2 2 0 0
0 7 10 1 0 0 0 0 0 0 0 1 0 0 4 7 42 68 56 102 69 1 4 1 4 4 2 3 5 1 5 5 8 6 5 4 4 4 3 3 4 4 2
0 11 11 0 0 0 0 0 0 0 0 0 0 0 0 0 0 1 0 4 14 1 0 4 3 2 3 2 2 1 3 2 5 8 6 7 5 5 5 5 4 4 4
0 0 0 0 0 0 0 0 0 0 0 0 0 0 0 0 0 0 0 0 0 0 0 1 3 5 3 3 3 3 4 6 5 9 7 6 5 4 3 3 3 2 1
0 0 0 0 0 0 0 0 0 0 0 0 0 0 0 0 1 0 0 0 0 0 0 3 4 6 7 3 2 2 4 3 7 7 5 8 5 2 1 0 0 0 0
0 0 0 0 0 0 0 0 0 0 0 0 0 0 0 0 0 0 1 0 0 0 0 1 3 5 6 5 3 2 2 3 2 3 3 1 1 3 1 0 0 0 0
0 0 0 0 0 0 0 0 0 0 0 0 0 0 0 0 0 0 0 0 0 0 0 2 3 6 6 3 2 2 3 1 1 0 0 0 0 0 0 0 0 0 0
0 0 0 0 0 0 0 0 0 0 0 0 0 0 0 0 0 0 0 0 0 0 0 0 0 0 0 0 1 0 1 1 2 1 0 2 0 0 0 0 0 0 0
0 0 0 0 0 0 0 0 0 0 0 0 0 0 0 0 0 0 0 0 0 0 0 0 0 0 0 0 0 0 0 0 0 0 0 2 0 4 0 0 0 0 0
0 0 0 0 0 0 0 0 0 0 0 0 0 0 0 0 0 0 0 0 0 0 0 0 0 0 0 0 0 0 0 0 0 0 0 0 0 0 0 0 0 0 0
0 0 0 0 0 0 0 0 0 0 0 0 0 0 0 0 0 0 0 0 0 0 0 0 0 0 0 0 0 0 0 0 0 0 0 0 0 0 0 0 0 0 0
0 0 0 0 0 0 0 0 0 0 0 0 0 0 0 0 0 0 0 0 0 0 0 0 0 0 0 0 0 0 0 0 0 0 0 0 0 0 0 0 0 0 0

GFSMA_con_sbcape_033.txt.gz
CAPE
271 125 571 675 767 692 768 616 625 579 167 128 199 189 347 359 310 260 368 978 1865 1650 1364 1597 1872 1317 1225 1361 1310 983 851 333 586 652 377 853 502 424 224 650 331 163 106
102 238 292 155 170 186 324 267 135 104 82 0 5 36 33 35 111 334 323 413 1707 1648 1504 1581 1932 1942 1334 1267 1533 1290 1052 540 737 1034 870 993 1133 886 514 190 301 329 423
204 398 213 57 35 52 189 101 19 0 0 0 0 0 0 0 26 250 309 369 519 1687 1553 1722 1921 2208 2426 2037 1916 1702 1791 1475 1340 1314 1107 1217 1108 1104 1019 605 535 467 686
0 228 429 164 68 27 39 45 0 0 0 0 0 0 0 0 15 100 385 429 456 533 1191 1699 1359 1392 2282 2003 1965 1820 1875 1368 1474 1507 1379 1228 1226 1117 1065 949 879 745 781
172 135 299 305 100 81 27 6 0 0 0 0 0 0 0 0 41 155 282 441 460 557 456 852 1538 1261 1675 1540 1285 2058 1758 1936 1831 1698 1629 1431 1366 1264 1060 1088 1016 946 860
328 334 227 257 167 101 32 1 0 0 0 0 0 54 5 0 9 132 236 472 483 464 575 538 529 676 1260 1373 1083 1601 1714 1486 1654 1820 1753 1486 1410 1016 892 911 808 854 1026
0 0 0 74 76 51 41 0 0 0 0 0 0 0 0 0 78 95 93 212 369 560 484 513 431 377 451 851 952 926 1203 1158 1065 1135 1171 1222 877 459 446 655 379 562 471
0 0 1 114 23 9 0 0 1 1 0 0 0 0 2 0 0 42 71 116 203 361 362 428 474 436 367 344 366 1006 1029 1032 711 384 724 460 367 268 207 429 318 358 413
164 113 59 35 2 0 0 0 0 1 0 1 0 0 0 0 1 1 122 189 291 329 391 465 445 454 426 258 322 264 656 812 873 659 536 329 513 328 272 235 396 613 520
83 97 81 53 4 0 0 0 0 0 0 0 1 0 1 0 0 16 6 29 107 204 239 202 272 281 362 198 317 390 174 160 171 119 130 214 312 368 512 593 616 415 273
0 33 41 19 0 0 0 0 0 1 0 0 0 0 0 20 41 21 20 13 10 27 42 124 203 228 287 344 93 197 111 91 117 135 18 13 132 332 407 330 466 697 978
0 0 0 0 0 0 0 0 0 0 0 0 0 0 0 9 28 19 12 17 6 9 0 13 11 107 35 22 177 78 59 10 8 34 2 3 73 116 166 250 321 376 520
0 0 0 0 1 0 1 0 0 0 0 0 0 0 7 4 2 1 7 7 9 1 18 6 19 177 121 22 21 35 32 9 3 1 2 2 3 7 29 83 127 199 282
0 0 0 0 1 1 0 0 0 0 0 0 0 0 0 1 15 5 1 2 8 20 0 26 4 3 3 4 13 5 5 7 6 3 2 2 3 3 4 6 8 29 42
4 14 5 0 0 0 1 1 1 1 1 0 0 0 0 0 19 45 16 6 3 0 0 12 2 3 3 3 6 2 3 10 9 6 5 5 5 6 5 3 2 2 2
7 0 0 0 0 0 0 0 0 0 0 1 1 1 1 0 0 10 24 5 0 0 6 1 2 3 3 4 7 1 5 5 7 6 5 4 4 4 4 4 4 3 2
0 0 0 0 0 0 0 0 0 0 0 0 0 0 0 0 0 0 2 2 1 0 0 4 3 3 2 2 2 1 2 2 5 8 6 5 4 4 4 4 4 4 4
0 0 0 0 0 0 0 0 0 0 0 0 0 0 1 0 0 0 0 1 1 0 0 0 2 3 2 2 3 2 4 4 4 13 8 6 4 2 1 1 1 0 0
0 0 0 0 0 0 0 0 0 0 0 0 0 0 0 0 1 1 0 1 1 1 0 1 2 3 4 3 2 2 3 2 4 4 4 5 2 0 0 0 0 0 0
0 0 0 0 0 0 0 0 0 0 0 0 0 0 0 0 1 0 1 1 0 1 1 1 2 3 3 4 3 3 2 1 2 1 2 0 0 0 0 0 0 0 0
0 0 0 0 0 0 0 0 0 0 0 0 0 0 0 0 0 0 0 0 0 0 1 2 3 3 5 3 1 2 2 1 1 0 0 0 0 0 0 0 0 0 0
0 0 0 0 0 0 0 0 0 0 0 0 0 0 0 0 0 0 0 0 0 0 0 0 1 2 3 0 0 1 1 1 1 0 0 1 0 0 0 0 0 0 0
0 0 0 0 0 0 0 0 0 0 0 0 0 0 0 0 0 0 0 0 0 0 0 0 0 0 0 0 0 0 0 0 0 0 0 2 1 0 0 0 0 0 0
0 0 0 0 0 0 0 0 0 0 0 0 0 0 0 0 0 0 0 0 0 0 0 0 0 0 0 0 0 0 0 0 0 0 0 0 0 0 0 0 0 0 0
0 0 0 0 0 0 0 0 0 0 0 0 0 0 0 0 0 0 0 0 0 0 0 0 0 0 0 0 0 0 0 0 0 0 0 0 0 0 0 0 0 0 0
0 0 0 0 0 0 0 0 0 0 0 0 0 0 0 0 0 0 0 0 0 0 0 0 0 0 0 0 0 0 0 0 0 0 0 0 0 0 0 0 0 0 0

GFSMA_con_sbcape_036.txt.gz
CAPE
779 195 264 686 796 688 869 933 1058 1068 793 631 585 430 389 655 614 466 454 738 1306 1430 1849 1305 875 1149 1245 1689 1281 1108 1034 527 346 851 668 659 598 742 457 277 413 169 112
158 145 249 263 287 421 611 635 460 537 514 217 125 227 191 202 284 451 455 755 1409 1383 1537 1601 1220 1564 1422 1687 1594 1487 1091 901 746 977 1153 758 955 844 703 210 539 401 304
228 237 264 188 118 30 200 219 141 87 117 41 29 0 19 25 26 110 378 544 644 1178 1578 1431 1452 1840 1804 2017 1752 1837 1751 1514 1232 1038 1286 941 1126 1001 710 815 585 519 817
0 0 165 266 72 44 10 46 36 32 20 0 0 0 0 0 0 31 205 582 663 552 1189 1667 1376 1377 1420 2080 2092 2028 1897 1816 1529 1336 1335 1208 1176 1078 1022 878 824 879 645
96 56 142 244 311 226 139 72 37 25 1 0 0 0 0 0 0 4 158 327 542 852 697 918 1373 1276 1495 1373 1635 1711 2048 1734 1727 1275 1443 1580 1251 1068 947 1094 996 855 820
330 294 307 309 180 180 138 32 12 1 1 0 0 2 0 0 0 31 85 279 585 690 904 861 1090 955 1434 1291 1144 1085 1013 1053 1236 1269 1496 1490 988 882 655 848 836 845 864
0 0 0 0 104 106 101 16 1 2 2 1 0 0 0 16 79 154 190 257 458 815 834 1105 1105 1073 1043 1157 960 1183 1327 935 758 895 823 854 803 737 698 599 488 486 654
16 0 0 45 43 41 22 3 2 3 2 2 0 0 39 20 1 61 148 232 268 437 777 823 882 835 877 873 951 748 1403 1255 1204 998 455 373 46 361 442 315 233 231 373
75 34 18 9 0 0 0 0 1 3 1 5 0 22 0 22 5 2 82 165 332 380 515 631 742 830 787 790 763 811 916 894 1254 1379 734 417 161 273 122 282 316 238 232
7 7 6 18 12 0 0 0 0 2 2 2 17 3 2 0 0 0 38 7 199 199 256 421 597 629 662 810 575 513 351 339 508 620 406 339 417 455 153 347 414 333 282
0 0 0 0 0 0 0 0 1 8 3 2 3 5 31 94 121 114 43 24 56 59 35 35 419 544 613 285 444 454 204 119 88 164 161 140 151 153 191 184 245 284 309
0 0 0 0 1 1 11 0 0 2 5 2 1 0 1 90 128 33 9 15 3 61 64 103 154 151 68 136 331 130 22 5 1 1 0 1 3 38 99 48 144 286 252
0 0 0 2 2 4 1 0 0 0 1 2 1 2 9 69 54 106 36 11 26 4 51 42 26 121 90 30 10 9 14 6 2 3 3 3 3 5 9 46 99 147 171
0 12 0 1 2 3 4 1 2 4 1 0 0 1 32 84 170 77 58 52 4 5 9 67 9 5 8 9 10 6 9 7 5 4 3 2 2 4 5 5 6 9 23
1 0 0 0 0 0 1 2 2 2 2 4 2 0 1 14 117 125 56 69 105 3 20 14 26 7 5 7 8 3 5 9 7 6 5 4 5 5 5 6 5 2 2
0 0 0 0 0 0 0 0 1 1 1 3 3 4 5 9 17 91 29 67 86 12 5 6 3 5 5 6 10 4 9 7 9 7 5 4 4 4 4 4 4 4 4
0 0 0 0 0 0 0 0 0 0 0 1 1 1 3 2 4 4 75 131 45 16 4 7 5 4 4 4 5 4 4 7 9 8 6 4 4 3 3 3 3 3 3
0 0 0 0 0 0 0 0 0 1 1 1 1 2 0 2 1 3 4 5 21 3 1 1 4 4 5 4 4 4 5 4 5 10 4 1 1 0 0 0 0 0 0
0 0 0 0 0 0 0 0 0 1 1 0 0 1 3 4 2 1 3 2 3 3 4 4 5 5 7 5 4 3 3 1 3 5 4 3 0 0 0 0 0 0 0
0 0 0 0 0 0 0 0 0 0 0 0 0 0 1 2 2 2 2 1 3 2 3 2 3 5 6 5 5 3 2 1 2 0 1 0 0 1 0 0 0 0 0
0 0 0 0 0 0 0 0 0 0 0 0 0 0 0 2 2 1 0 1 2 3 3 3 4 4 5 4 2 4 3 2 3 1 1 0 0 0 0 0 0 0 0
0 0 0 0 0 0 0 0 0 0 0 0 0 0 0 0 0 0 0 0 0 1 1 3 5 5 5 2 1 2 1 1 3 1 1 1 1 1 0 0 0 0 0
0 0 0 0 0 0 0 0 0 0 0 0 0 0 0 0 0 0 0 0 0 0 0 0 3 1 3 0 0 1 0 1 2 3 0 4 2 5 4 1 0 0 0
0 0 0 0 0 0 0 0 0 0 0 0 0 0 0 0 0 0 0 0 0 0 0 0 0 0 0 0 0 0 0 0 2 0 0 1 3 1 1 1 0 0 0
0 0 0 0 0 0 0 0 0 0 0 0 0 0 0 0 0 0 0 0 0 0 0 0 0 0 0 0 0 0 0 0 0 1 2 0 4 1 1 0 0 0 0
0 0 0 0 0 0 0 0 0 0 0 0 0 0 0 0 0 0 0 0 0 0 0 0 0 0 0 0 0 0 0 10 24 22 5 8 1 0 0 0 0 0 0

GFSMA_con_sbcape_042.txt.gz
CAPE
1402 1386 1711 1304 1897 2727 2038 2007 1839 1435 1408 1407 1301 1169 1020 955 825 617 417 1240 1349 1756 1402 1412 1591 1636 1844 1851 1826 1310 905 919 582 781 855 746 686 429 507 616 306 196 94
1029 1127 830 844 955 2065 2888 3053 2058 1433 1218 1195 1388 1416 1353 1119 999 931 826 915 1683 1846 1735 1506 2169 1761 1414 1742 1659 1719 1308 987 1438 1184 938 1377 1003 1027 731 665 595 585 463
1064 1571 2359 1778 966 1337 1880 2364 1867 1788 1482 1259 1151 1204 1238 1243 1091 1164 1303 974 1217 1433 1761 2040 2088 1912 1554 1398 1694 1949 1864 1634 1618 1423 1094 1135 1304 998 1149 716 724 754 926
1475 1548 1118 1525 1273 2620 3047 2824 1532 2408 1880 1563 1759 1470 1073 1006 945 1018 1147 1154 916 898 1363 1949 1865 1777 1557 1440 1298 1515 1110 1061 897 1056 1215 1116 1020 1166 1132 1215 935 876 774
1436 2251 2149 1606 1706 1186 1587 1228 1097 1379 1560 1348 955 1027 1020 1013 780 542 662 1094 1168 986 1149 1885 1787 1684 1670 1248 1370 1361 1459 821 552 508 423 629 728 583 969 1099 1114 988 786
1808 1883 1904 1207 1401 1958 2369 2033 1527 1378 1021 892 892 635 774 912 735 382 374 711 1017 973 855 1115 1518 1299 1755 1934 1367 1541 1789 1450 772 505 460 382 438 702 649 695 573 480 712
845 1805 2018 1539 1477 1466 1241 1357 1289 1147 1569 979 1099 618 630 928 960 625 478 218 240 310 552 1119 2864 1521 1286 1377 1333 1579 1711 1529 1560 857 595 467 389 320 346 542 485 436 338
1224 1301 1229 1176 1337 1516 1494 1274 1326 1538 1101 1215 817 660 713 775 705 831 736 686 713 412 736 1593 1992 1877 1837 1325 1419 1264 1334 1301 1185 1079 1031 885 643 422 363 223 246 236 263
956 1025 1063 1169 1315 1247 513 1080 1112 1155 619 613 813 775 980 322 1230 782 975 796 862 813 858 1074 1428 1570 1687 1518 1252 1166 840 733 771 875 1172 900 619 423 303 297 240 198 148
823 705 819 804 944 781 958 990 995 1157 1081 931 662 740 914 1257 1240 1214 1170 1080 1002 857 1124 1409 1385 1561 1611 1803 1321 512 144 140 286 401 494 605 478 278 316 301 268 305 277
460 368 585 662 935 1457 1194 1145 1174 1114 1033 1002 995 594 716 1065 1344 1322 1118 629 804 449 376 661 1038 1708 1403 1416 978 82 24 1 7 9 46 67 78 83 84 111 161 100 123
149 384 549 381 552 1105 1128 1156 1213 1032 813 771 591 512 1008 954 838 1541 1388 1120 887 217 98 211 510 946 644 635 185 38 2 2 2 2 2 4 21 31 51 72 123 130 115
64 327 553 490 413 928 1066 1227 1048 947 971 933 898 1047 933 1368 1629 1746 1616 969 149 300 124 39 53 53 31 84 74 24 5 3 4 1 1 1 2 8 11 18 22 52 82
90 116 380 336 402 672 791 761 432 578 920 1279 829 1026 1323 1393 1749 1605 1365 1262 653 117 161 10 6 8 8 22 12 6 9 5 5 2 2 2 2 4 7 8 7 7 7
36 120 18 56 218 258 402 523 371 284 399 432 829 881 1155 1444 1513 1552 1308 621 997 582 220 32 10 8 12 12 10 11 15 7 6 3 2 2 2 3 1 3 3 2 4
139 187 20 14 70 127 257 297 211 203 350 409 446 588 737 1171 1473 1748 1463 689 638 816 683 23 8 8 10 13 13 9 8 4 6 5 4 2 2 2 3 2 3 3 4
90 123 9 24 35 64 45 61 85 41 8 16 38 99 157 449 560 938 1280 1273 1132 766 41 9 8 9 8 9 8 10 11 11 6 4 1 0 0 0 0 1 1 1 2
13 10 8 12 11 12 18 16 15 16 8 3 7 12 62 116 330 303 627 394 972 779 53 5 7 6 7 8 9 9 8 6 7 2 0 0 0 0 0 0 0 0 0
21 6 5 3 4 4 4 9 12 13 17 8 8 14 13 20 11 4 14 11 11 112 19 5 7 10 11 8 8 6 4 3 2 3 0 0 0 0 0 0 0 0 0
37 8 8 4 2 1 2 2 2 7 9 16 17 16 13 10 12 17 15 31 37 12 7 8 8 8 11 9 8 5 4 0 0 0 0 0 0 0 0 0 0 0 0
31 4 5 6 3 0 1 3 0 3 5 7 15 9 6 0 0 0 15 41 52 29 8 8 8 7 5 6 7 5 6 1 0 0 1 8 8 9 2 0 0 0 0
33 9 3 3 2 0 0 0 0 0 0 0 0 0 3 0 0 0 0 0 0 54 81 30 17 16 17 6 7 8 3 1 13 10 10 11 12 9 6 1 0 0 0
37 11 20 22 10 0 0 0 0 0 0 0 0 0 0 0 0 2 0 0 0 0 0 40 35 50 61 59 54 35 34 23 21 9 18 24 7 11 10 1 0 0 0
18 4 5 27 12 0 0 0 0 0 1 0 0 0 0 0 0 0 0 0 0 0 0 0 1 3 11 21 22 37 48 45 19 30 16 36 2 15 24 7 0 0 0
71 4 8 29 12 0 0 0 0 0 0 0 0 0 0 0 0 0 0 0 0 0 0 0 0 0 0 0 0 1 33 24 93 91 76 73 25 34 34 40 2 0 0
22 4 3 6 1 1 0 0 0 0 0 0 0 0 0 0 0 0 0 0 0 0 0 0 0 0 0 0 0 0 0 0 3 58 123 62 91 73 60 48 47 1 0

GFSMA_con_sbcape_045.txt.gz
CAPE
1880 1261 1178 1335 1358 2818 1147 2639 2282 1841 1612 1399 1181 1297 1187 1509 1103 788 1489 2178 1795 1948 1621 1404 1696 1730 1924 2062 1610 1179 847 1178 903 717 860 646 791 461 429 642 573 193 124
881 634 727 738 705 1083 1577 2089 3133 1591 1664 1749 1070 1400 1632 1568 1291 1555 855 1751 2326 2114 1976 1680 2189 2316 1730 1629 2091 1837 1462 1016 1329 1349 914 1184 1325 734 505 494 629 578 660
616 743 632 498 812 1190 2390 2310 2630 2377 2050 1794 1854 1856 1749 1633 919 1577 1462 1547 1283 1735 2080 2169 2149 2356 2271 1916 1596 1558 1658 1446 1263 1210 1239 1045 1122 1432 1085 857 933 841 916
535 1074 1667 1140 1267 1789 2013 2800 2960 1768 2490 2125 2751 1417 1637 1580 1999 1559 1418 1106 1847 879 1490 1916 1976 2225 2295 1768 1408 1084 1155 1169 518 705 917 1070 1083 1005 1124 1214 1152 1071 879
949 1764 1125 1281 1851 1265 2745 2176 1636 2220 1779 1854 1922 2311 1613 1590 1666 789 974 1233 1421 1228 1074 1316 1810 1969 1924 1336 1338 812 523 884 595 441 358 393 367 521 888 948 1043 1034 1022
699 2344 1913 2414 2175 2835 3019 1511 1858 2155 1341 1565 1116 627 1444 1380 929 924 653 527 861 1163 987 1315 2039 1143 1976 1747 1693 1773 1488 1029 847 612 620 670 413 394 536 348 442 835 898
1742 2307 2883 2510 2584 2643 1873 1630 1659 1968 989 1030 1287 825 1051 1105 1094 1010 991 313 565 1076 1041 983 1453 1601 1360 1552 1547 1615 1639 1724 1630 814 1047 868 849 708 492 375 370 411 434
1297 1308 1513 1943 1481 1807 1946 1578 1675 1790 1621 1631 1365 1881 965 765 529 654 758 791 428 462 430 1029 1375 2314 2091 1309 1230 1558 1654 1507 1484 1485 1318 1023 875 367 408 451 429 176 304
1066 1034 1153 1073 1432 1584 471 2383 1338 1461 2063 1978 1405 1003 905 1223 936 955 1460 1176 1517 1540 561 1091 980 161 2247 1100 1268 1357 1262 1179 931 976 1430 1409 922 388 357 385 396 202 261
936 626 705 947 917 918 1795 1209 2103 1606 1611 1372 1672 1829 950 1285 1330 1198 1926 2092 1407 1250 1431 1423 1529 1468 1111 1192 787 297 161 247 443 473 523 554 605 371 272 353 395 299 185
531 473 846 1458 1365 1675 1789 1671 1451 1567 1717 1438 1409 1243 1270 1078 903 1570 809 1009 629 436 618 829 1240 1281 935 225 108 85 43 22 24 21 43 74 83 91 90 102 132 177 197
362 635 695 790 877 1118 1549 1595 1531 1112 1329 1355 1814 826 711 1256 1622 1170 1485 695 737 147 51 16 31 30 83 129 127 36 5 3 4 3 4 6 33 83 117 127 137 179 165
206 768 826 892 919 1142 1153 1269 1277 1449 1312 1210 1180 1312 1067 1426 1446 1964 1840 500 523 434 15 4 13 33 57 101 63 13 5 3 2 3 3 4 5 3 6 12 18 24 28
950 452 626 592 782 942 1016 818 616 725 694 1200 1146 1313 1544 1901 1719 2348 1776 724 471 537 183 5 6 6 8 14 12 8 7 5 6 2 2 2 3 3 4 5 5 6 5
264 316 162 191 412 414 375 571 470 939 870 946 926 1123 1749 1995 1967 1571 1437 1266 640 395 113 22 7 10 13 10 9 8 7 7 6 4 2 2 1 3 3 2 1 5 6
444 380 70 100 101 455 729 985 541 411 319 418 519 791 1087 1491 1718 1769 1407 1470 1288 1084 262 9 8 9 6 9 11 4 5 3 3 2 3 2 2 3 2 3 3 2 3
216 222 128 172 123 139 120 156 253 99 117 99 227 382 504 895 1546 1351 1577 1609 1452 1532 5 10 9 7 7 6 2 5 8 7 1 1 0 0 0 0 0 0 0 0 1
197 123 163 147 80 60 67 40 20 179 13 16 17 71 178 82 366 443 406 844 1122 998 6 8 6 6 5 6 10 9 7 6 3 0 0 0 0 0 0 0 0 0 0
118 63 22 7 10 8 6 9 14 17 10 8 13 21 18 62 64 101 126 99 46 87 5 4 6 6 7 6 4 3 1 2 1 0 0 0 0 0 0 0 0 0 0
108 64 42 5 2 3 4 2 6 9 12 11 11 7 2 1 9 44 73 341 56 5 8 6 5 7 7 7 5 2 0 0 0 0 0 0 0 0 0 0 0 0 0
143 82 57 14 2 1 1 0 4 6 6 10 6 0 0 0 0 0 14 36 137 5 3 4 5 6 4 6 6 5 2 0 0 0 0 0 0 0 0 0 0 0 0
194 124 65 39 3 0 0 0 0 0 0 1 1 2 0 0 0 0 0 0 0 130 59 14 9 10 24 24 9 8 13 8 13 7 15 43 83 42 25 0 0 0 0
237 129 35 60 32 0 0 0 0 0 0 0 0 1 1 0 8 1 0 0 0 0 12 119 77 71 61 61 58 47 45 55 57 31 78 58 36 86 26 0 0 0 0
249 106 92 221 35 0 0 0 0 6 5 7 7 0 0 0 0 0 0 0 0 0 0 0 0 0 0 4 20 38 57 52 33 50 67 69 45 80 35 0 0 0 0
318 61 54 148 19 0 0 0 0 14 12 10 8 1 0 0 0 0 0 0 0 0 0 0 0 0 0 0 0 0 102 11 55 102 86 134 52 103 91 4 0 0 0
328 65 128 46 3 5 0 0 0 10 3 2 3 0 0 0 0 0 2 1 1 0 0 0 0 0 0 0 0 0 0 0 2 61 75 42 104 45 66 75 28 0 0

GFSMA_con_sbcape_048.txt.gz
CAPE
1792 1802 927 1013 1058 1792 1649 618 0 0 632 1582 1557 1159 1061 786 1183 1239 1705 1941 1599 1874 1851 1879 2021 1814 1917 2067 1841 1527 942 767 1080 731 867 593 907 941 650 764 633 413 369
1263 1105 232 334 466 1343 762 902 712 467 845 1952 1969 1336 1016 1201 1196 1287 1271 1295 1738 1721 2036 2315 2313 2271 2048 2142 2149 2001 1483 1239 1487 1514 1238 1060 1389 1214 1041 791 830 819 810
867 689 235 414 489 72 3 90 808 1346 1257 1744 1975 922 1771 1674 1419 1490 987 1209 1365 2114 2335 2266 2408 2176 2125 2452 2053 1856 1723 1825 1629 1387 1446 1351 1216 1170 1301 1097 837 1030 1025
770 492 338 1081 341 178 7 0 699 1130 1681 1501 1570 1746 765 1167 1684 1224 1510 1351 1318 1011 1692 2078 1973 2038 2090 2241 1728 1972 1685 1123 1584 1004 1072 1226 1313 1009 652 663 1026 1043 1037
336 442 1208 1330 1639 930 258 91 1962 1562 1879 1806 1506 843 706 1603 1939 1144 1171 946 1356 1196 1312 1473 1392 1186 1660 1632 1791 2084 1261 753 1120 804 692 561 813 852 353 456 907 935 908
524 1085 1378 1683 2137 1968 1494 1036 1570 1286 1095 1304 1440 1092 1380 1410 1433 1145 979 892 693 1169 1419 1018 775 675 1139 1636 1990 2006 1548 954 727 1018 964 949 883 796 619 584 396 338 572
761 1060 777 1390 1502 1835 1457 1472 1254 1177 1692 1312 1197 1059 1050 1315 1275 1175 944 768 365 1032 659 515 1058 1097 1217 1433 1422 1652 1981 1556 1291 1279 1182 1044 1079 1013 877 822 469 396 336
719 1578 1260 806 663 1329 1289 1395 1419 1622 1584 1535 973 955 737 866 999 746 395 685 426 775 781 866 610 527 203 301 642 1228 1217 1814 1650 1890 1639 1067 1035 962 721 678 434 302 365
700 641 978 1283 1391 1622 1377 1753 1971 1582 1417 1699 1537 1005 809 767 768 810 388 302 681 577 1007 818 559 70 78 50 34 459 684 964 1264 1631 1386 1165 1095 699 629 550 384 285 262
1243 1266 1379 1275 1152 1671 1855 1542 1665 1599 1472 1188 1402 878 676 691 778 402 226 495 393 625 716 773 764 181 3 15 317 181 168 257 511 500 379 333 278 324 275 234 252 290 258
839 709 847 1342 1565 1693 1877 1970 2179 1925 1662 1083 1252 1020 756 598 734 810 384 527 73 69 105 200 91 565 39 34 8 28 32 31 37 66 69 61 69 76 81 94 133 173 224
749 1300 845 993 1185 1387 1630 1774 1330 1259 1538 1434 1162 1188 950 799 769 811 606 298 5 7 3 10 7 27 37 31 42 12 8 3 1 5 5 18 23 22 35 37 57 36 37
399 694 608 953 1144 1220 1369 1370 1388 1506 1377 1129 813 897 897 852 958 1015 578 149 49 53 10 2 8 24 18 8 9 11 11 5 4 4 6 6 10 14 15 17 19 20 14
642 759 572 751 647 1015 849 879 1005 1099 974 1108 1010 742 817 1105 1004 705 308 106 82 243 108 5 3 3 12 15 12 10 7 7 5 2 2 2 4 5 6 2 4 4 6
638 569 188 295 368 371 890 1171 496 391 846 897 933 923 948 738 765 1059 955 291 411 247 23 10 5 3 2 7 3 1 3 5 7 5 3 2 1 3 4 3 4 5 3
548 453 152 142 212 278 666 665 212 156 133 129 154 403 605 882 996 1035 965 968 547 435 13 5 7 5 3 7 9 1 1 3 3 2 1 1 1 1 2 1 1 2 1
321 453 333 333 309 428 450 750 295 79 64 102 129 162 240 415 581 790 687 769 524 96 1 5 5 2 2 0 0 0 0 0 0 0 0 0 0 0 0 0 0 0 1
653 545 411 487 455 324 400 427 97 14 14 1 7 15 32 32 68 137 253 469 446 197 1 1 5 4 2 0 0 0 0 0 0 0 0 0 0 0 0 0 0 0 1
610 399 424 406 234 202 214 237 138 13 13 6 3 2 5 90 20 234 130 3 0 0 1 1 3 3 3 0 0 0 0 0 0 0 0 0 0 0 0 0 0 0 0
622 505 361 272 200 138 60 80 30 60 8 0 0 0 0 0 0 206 152 2 0 1 3 1 2 4 4 2 0 0 0 0 0 0 0 0 0 0 0 0 0 0 0
640 551 435 191 108 0 0 0 23 16 21 4 0 0 0 0 0 0 0 3 0 2 2 2 3 3 3 4 2 1 0 0 0 0 0 0 0 0 0 0 0 0 0
716 625 474 247 0 0 0 0 0 2 11 12 9 0 0 0 0 0 0 0 0 0 0 0 0 0 0 0 0 4 2 2 1 0 4 8 7 0 0 0 0 0 0
885 553 297 101 0 0 0 0 0 15 7 14 2 0 0 0 0 0 0 0 0 0 2 20 15 27 16 22 23 45 36 48 40 33 37 42 42 14 0 0 0 0 0
824 624 509 298 0 0 0 0 0 30 16 13 0 0 0 0 0 0 0 0 0 0 0 0 0 0 0 0 0 9 72 83 64 48 81 47 42 36 0 0 0 0 0
791 432 435 211 11 0 0 0 0 54 29 13 0 0 0 0 0 0 0 0 0 0 0 0 0 0 0 0 0 0 16 58 55 57 50 41 41 44 0 0 0 0 0
597 241 290 184 21 0 0 0 0 2 39 0 0 0 0 0 0 0 10 2 0 0 0 0 0 0 0 0 0 0 0 0 0 36 0 1 48 60 63 13 0 0 0